DAL747 KJFK-KLAX

Flight info

Callsign DAL747
Flight time N/A
Altitude 38000
Route RBV Q430 AIR J80 MCI J24 SLN J102 ALS J44 RSK J64 TBC JASSE Q90 DNERO ANJLL4
Aircraft A333/H-VGDW/C

Departure

Time N/A
Airport John F. Kennedy International Airport (KJFK)

Arrival

Time 2026-04-20 00:04
Airport Los Angeles International Airport (KLAX)
Time Latitude Longitude Altitude Speed Heading
2026-04-19 23:51 34.19173 -117.26425 21951 ft 186 kts 233°
2026-04-19 23:51 34.18204 -117.27979 20669 ft 272 kts 232°
2026-04-19 23:51 34.16970 -117.30038 19820 ft 332 kts 237°
2026-04-19 23:51 34.15918 -117.32642 19624 ft 366 kts 249°
2026-04-19 23:52 34.15164 -117.35690 19606 ft 389 kts 249°
2026-04-19 23:52 34.13892 -117.38627 19604 ft 402 kts 234°
2026-04-19 23:52 34.12258 -117.41325 19606 ft 388 kts 234°
2026-04-19 23:52 34.10761 -117.43937 19606 ft 370 kts 234°
2026-04-19 23:53 34.09339 -117.46444 19543 ft 355 kts 234°
2026-04-19 23:53 34.07966 -117.48885 19250 ft 349 kts 237°
2026-04-19 23:53 34.06947 -117.51529 18854 ft 348 kts 249°
2026-04-19 23:53 34.06201 -117.54305 18411 ft 348 kts 251°
2026-04-19 23:54 34.05541 -117.56950 17952 ft 346 kts 251°
2026-04-19 23:54 34.04853 -117.59724 17512 ft 343 kts 251°
2026-04-19 23:54 34.04171 -117.62444 17211 ft 336 kts 251°
2026-04-19 23:54 34.03492 -117.65128 16576 ft 333 kts 251°
2026-04-19 23:55 34.02816 -117.67775 15833 ft 327 kts 251°
2026-04-19 23:55 34.02256 -117.70417 15110 ft 323 kts 258°
2026-04-19 23:55 34.01941 -117.73081 14405 ft 319 kts 261°
2026-04-19 23:55 34.01687 -117.75720 13692 ft 315 kts 261°
2026-04-19 23:56 34.01524 -117.77451 13173 ft 312 kts 261°
2026-04-19 23:56 34.01198 -117.80870 12165 ft 308 kts 261°
2026-04-19 23:56 34.00952 -117.83415 11419 ft 304 kts 261°
2026-04-19 23:56 34.00708 -117.85936 10702 ft 301 kts 261°
2026-04-19 23:57 34.00463 -117.88429 9983 ft 298 kts 261°
2026-04-19 23:57 34.00222 -117.90897 9206 ft 295 kts 261°
2026-04-19 23:57 34.00062 -117.92519 8686 ft 293 kts 261°
2026-04-19 23:57 33.99824 -117.94948 7956 ft 291 kts 261°
2026-04-19 23:58 33.99587 -117.97358 7226 ft 288 kts 262°
2026-04-19 23:58 33.99362 -117.99749 6516 ft 287 kts 261°
2026-04-19 23:58 33.99141 -118.02138 5813 ft 286 kts 261°
2026-04-19 23:58 33.98924 -118.04518 5327 ft 285 kts 261°
2026-04-19 23:59 33.98703 -118.06883 5028 ft 281 kts 261°
2026-04-19 23:59 33.98462 -118.09182 4856 ft 272 kts 259°
2026-04-19 23:59 33.98170 -118.11392 4679 ft 264 kts 259°
2026-04-19 23:59 33.97938 -118.13563 4431 ft 257 kts 262°
2026-04-20 00:00 33.97742 -118.15649 4130 ft 251 kts 262°
2026-04-20 00:00 33.97531 -118.17717 3765 ft 246 kts 261°
2026-04-20 00:00 33.97319 -118.19749 3417 ft 243 kts 261°
2026-04-20 00:00 33.97114 -118.21750 3082 ft 238 kts 262°
2026-04-20 00:01 33.96914 -118.23705 2772 ft 232 kts 262°
2026-04-20 00:01 33.96718 -118.25616 2477 ft 228 kts 262°
2026-04-20 00:01 33.96351 -118.29186 1908 ft 199 kts 262°
2026-04-20 00:02 33.96188 -118.30766 1658 ft 182 kts 262°
2026-04-20 00:02 33.96036 -118.32227 1416 ft 170 kts 262°
2026-04-20 00:02 33.95895 -118.33583 1213 ft 157 kts 263°
2026-04-20 00:02 33.95769 -118.34817 1012 ft 143 kts 262°
2026-04-20 00:03 33.95653 -118.35958 805 ft 132 kts 262°
2026-04-20 00:03 33.95538 -118.37010 632 ft 121 kts 262°
2026-04-20 00:03 33.95438 -118.38015 503 ft 122 kts 262°
2026-04-20 00:03 33.95330 -118.39033 292 ft 122 kts 262°
2026-04-20 00:04 33.95227 -118.40036 147 ft 120 kts 261°
2026-04-20 00:04 33.95128 -118.40990 97 ft 96 kts 263°
2026-04-20 00:04 33.95067 -118.41584 98 ft 59 kts 263°
2026-04-20 00:04 33.95024 -118.42002 98 ft 33 kts 260°
2026-04-20 00:05 33.94923 -118.42213 99 ft 15 kts 227°
2026-04-20 00:05 33.94889 -118.42251 101 ft 0 kts 217°
2026-04-20 00:05 33.94872 -118.42264 100 ft 7 kts 208°
2026-04-20 00:06 33.94805 -118.42281 101 ft 13 kts 184°
2026-04-20 00:06 33.94696 -118.42250 101 ft 13 kts 126°
2026-04-20 00:06 33.94692 -118.42143 99 ft 15 kts 84°
2026-04-20 00:06 33.94706 -118.42017 99 ft 16 kts 83°
2026-04-20 00:07 33.94718 -118.41880 99 ft 17 kts 85°
2026-04-20 00:07 33.94734 -118.41729 99 ft 19 kts 82°